Location: Henham
(51.9333°N, 0.2500°E)
Time: 12:58:07
(UTC+00:00)

Cosmos 2297 - Pass Details

Date: 23 October 2019
Orbit: 834 x 860 km, 71.0° (Epoch: 21 November)

Event Time Altitude Azimuth Distance (km) Brightness Sun altitude
Rises 18:16:06 0° 184° (S) 3,399 6.9 -14.1°
Reaches altitude 10° 18:18:39 10° 177° (S) 2,472 6.1 -14.5°
Maximum altitude 18:23:55 41° 109° (ESE) 1,230 4.1 -15.3°
Drops below altitude 10° 18:29:14 10° 41° (NE) 2,502 5.8 -16.1°
Enters shadow 18:29:25 - 41° (NE) 2,567 5.9 -16.1°
